Location: Unspecified
(0.0000°N, 0.0000°E)
Time: 13:54:23
(UTC+00:00)

Tandem-X - Visible Passes

Search period start: 29 September 2023 00:00
Search period end: 09 October 2023 00:00
Orbit: 507 x 509 km, 97.4° (Epoch: 27 September)

Date Brightness Start Highest point End Pass type
(mag) Time Alt. Az. Time Alt. Az. Time Alt. Az.
01 Oct 8.3 05:20:55 10° NE 05:23:43 20° ESE 05:26:32 10° SSE visible
01 Oct 8.5 18:46:46 10° SW 18:48:53 15° WSW 18:51:01 10° WNW visible
02 Oct 9.0 05:05:35 10° E 05:06:41 11° ESE 05:07:46 10° ESE visible
02 Oct 7.6 18:28:40 10° SSW 18:31:50 27° WSW 18:35:00 10° NW visible
03 Oct 6.2 18:11:08 10° S 18:14:46 52° WSW 18:18:22 10° NNW visible
06 Oct 8.9 18:56:11 10° WSW 18:57:08 11° WSW 18:58:05 10° W visible
07 Oct 8.6 05:12:44 10° ENE 05:14:54 15° ESE 05:17:05 10° SE visible
07 Oct 8.2 18:37:16 10° SSW 18:40:03 20° WSW 18:42:49 10° NW visible
08 Oct 6.9 18:19:30 10° S 18:22:57 37° WSW 18:26:23 10° NNW visible
